"Pseudo-MPEC" for C06VMG2

Created 2019 Feb 19 1:18:11 UT using Find_Orb

Click here for an explanation of pseudo-MPECs

 
 Astrometry: 
     C06VMG2  C2019 02 11.30070 09 56 24.16 +10 03 27.4    ~2B8I 21.2 GVNEOCPG96
     C06VMG2  C2019 02 11.30631 09 56 24.49 +10 03 30.6    ~2B8I 21.3 GVNEOCPG96
     C06VMG2  C2019 02 11.31193 09 56 24.75 +10 03 34.6    ~2B8I 21.2 GVNEOCPG96
     C06VMG2  C2019 02 11.31756 09 56 25.05 +10 03 37.5    ~2B8I 21.7 GVNEOCPG96
     C06VMG2  C2019 02 11)V],iYD:\WXR[ikbv4GyNV*B(^AWGGsPWV65AstrometryZ;L8s$V06
     C06VMG2  C2019 02 116lfGQbOi^-7+ZAb72cLlXR^+WfGZUnrla8mlTB[8)LCdH`UZ#'[4V06
     C06VMG2  C2019 02 11:\Q,wiSCDv$6Y+4C-txgQZG2nfR9Ksrf/JL`m)kVb(5G3TjeAAEhV06
     C06VMG2  C2019 02 1123v]M6P-@Bc\$R)@e]0QXQP^x/w^DcqD9.KP92Jredacted;5u,9V06
     C06VMG2 |C2019 02 12D*tO^2Mnce876@EJ^NtM$Zf,IESOBR3'q(T?EsWL0HF0pHlDvJXb807
     C06VMG2 |C2019 02 12bC!Cn)Q4OJEU5m!E1KmXoi(M,9.nIRe;S./7_C@ciOx6PCUkZ$4+807
     C06VMG2 |C2019 02 12ACNQi?jg_TV4RFPHsclickA\QUy\PTO3:9Vthbd-RQG`a5maTC0'807
     C06VMG2  C2019 02 12#TyBA9[w4#9Rel)f,D!y+/vokn$h;sEIrgjf#BTZ[,E'i143ggv4V06
     C06VMG2  C2019 02 12?#kAGWDie%Kq$,`jtsWblSZZul@!q_!t+BBAe(Fjy$w:nqgK3YYmV06
     C06VMG2  C2019 02 12]4pW?8S[3?c3c=8`1,2x2E2km%yaks(ar_dmxfY1Ov#j-0`v!rgHV06
     C06VMG2  C2019 02 12$U]51QTQ1?aCJo-/)('J*Xj:/]%38=+Nsp%MGjl(RiRhere!vY0YV06
     C06VMG2 KC2019 02 1392WsIj+wcWjIG6QS^TV=62/s13G%E$REMB+%_-\)0]?b7ykV=dF)L01
     C06VMG2 KC2019 02 13,DK+LG6+,wg5.J/J;.JaAKdJD^+$8k#cP)1g4qU-LYvu$F\CgaakL01
     C06VMG2 KC2019 02 135[1fv-RnK-UxfKN;OOwLp^4bDgrhEt$Z+Dx\Q*PVk_forTX0]M92L01
     C06VMG2 pC2019 02 13aAPg6.Gv,X]*b9PGHb1_5Jq`6S$jxe2:oSQWT'c._m!nCp+3U@]LL01
     C06VMG2 KC2019 02 14$*rN]#+l*oCImD=6F3AYhpnwjN6c+:mWh+ZNwCwalE_d[_wW@si4L01
     C06VMG2 KC2019 02 14j%CO:qLXn#@:HY$*?Va7vZd*:'j6)jZbg/855`9U!a4YE-5`EetKL01
     C06VMG2 KC2019 02 14:mexplanation6V4F3M5H3N#hjkHiy]*x#XIS7i_EX,[hA[!HqI[L01

Station data:
(807) Cerro Tololo Observatory, La Serena  (S30.169136 W70.805900)  Chile.
   1.5-m Ritchey-Chrétien.
(G96) Mt. Lemmon Survey  (N32.442754 W110.788720)  US/Arizona.  Observers B.
   M. Africano, E. J. Christensen, G. A. Farneth, D. C. Fuls, A. R. Gibbs, A.
   D. Grauer, H. Groeller, J. A. Johnson, R. A. Kowalski, S. M. Larson, G. J.
   Leonard, R. L. Seaman, F. C. Shelly. 1.5-m reflector + 10K CCD.
(L01) Višnjan Observatory, Tičan  (N45.290900 E13.749300)  Croatia.
   Observers K. Korlević, E. Pettarin. Measurer E. Pettarin. 1.0-m f/2.9
   reflector + CCD.
(V06) Catalina Sky Survey-Kuiper  (N32.416847 W110.732550)  US/Arizona.
   Observers B. M. Africano, E. J. Christensen, G. A. Farneth, D. C. Fuls, A.
   R. Gibbs, A. D. Grauer, H. Groeller, J. A. Johnson, R. A. Kowalski, S. M.
   Larson, G. J. Leonard, R. L. Seaman, F. C. Shelly. 1.55-m reflector + CCD.

Orbital elements:  C06VMG2
   Perihelion 2019 Feb 1.812044 +/- 0.347 TT = 19:29:20 (JD 2458516.312044)
Epoch 2019 Feb 14.0 TT = JDT 2458528.5   Earth MOID: 0.3136   Ma: 0.0692
M   2.81750114 +/- 0.06             (J2000 ecliptic)          AutoNEOCP
n   0.23117093 +/- 0.00463          Peri.  344.77678 +/- 0.27
a   2.62934290 +/- 0.0351           Node   150.86182 +/- 0.0037
e   0.5060071 +/- 0.00556           Incl.    4.38892 +/- 0.037
P   4.26                   H 23.0   G  0.15   U  9.1  
q 1.29887652 +/- 0.00281    Q 3.95980928 +/- 0.0687
From 22 observations 2019 Feb. 11-14; mean residual 0".33
Residuals in arcseconds: 
190211 G96  .24-  .43+    190212 807  .55-  .04-    190213 L01  .18-  .00     
190211 G96  .38+  .00     190212 807  .22-  .10-    190213 L01  .04-  .17+    
190211 G96  .05-  .37+    190212 807  .02+  .06+    190213 L01  .08+  1.1+    
190211 G96  .12+  .36-    190212 V06  .12+  .39-    190214 L01  .58+  .50-    
190211 V06  .41-  .44-    190212 V06  .39+  .22-    190214 L01  .53-  .17-    
190211 V06  .10+  .14-    190212 V06  .39+  .34-    190214 L01  .06+  .08+    
190211 V06  .31+  .45+    190212 V06  .25+  .17-    
190211 V06  .22-  .04+    190213 L01  .03-  .06-    

Ephemerides (geocentric):
Date (UTC) HH   RA              Dec         delta   r     elong  mag " sig PA
---- -- -- --  -------------   -----------  ------ ------ -----  --- ---- ---
2019 02 19 01  10 04 04.071   +11 27 27.96  .32359 1.3119 179.1 21.3 1.86  32
2019 02 19 02  10 04 06.489   +11 27 54.69  .32364 1.3120 179.1 21.3 1.88  32
2019 02 19 03  10 04 08.906   +11 28 21.41  .32370 1.3121 179.1 21.3 1.91  32
2019 02 19 04  10 04 11.323   +11 28 48.12  .32375 1.3121 179.0 21.3 1.93  32
2019 02 19 05  10 04 13.740   +11 29 14.82  .32381 1.3122 179.0 21.3 1.96  32
2019 02 19 06  10 04 16.156   +11 29 41.50  .32387 1.3123 179.0 21.3 1.98  33
2019 02 19 07  10 04 18.571   +11 30 08.18  .32393 1.3123 178.9 21.3 2.01  33
2019 02 19 08  10 04 20.986   +11 30 34.84  .32398 1.3124 178.9 21.3 2.03  33
2019 02 19 09  10 04 23.401   +11 31 01.50  .32404 1.3124 178.9 21.3 2.06  33
2019 02 19 10  10 04 25.815   +11 31 28.14  .32410 1.3125 178.8 21.3 2.09  33
2019 02 19 11  10 04 28.229   +11 31 54.77  .32416 1.3126 178.8 21.3 2.11  33
2019 02 19 12  10 04 30.642   +11 32 21.39  .32421 1.3126 178.8 21.3 2.14  33
2019 02 19 13  10 04 33.055   +11 32 48.00  .32427 1.3127 178.7 21.3 2.17  34
2019 02 19 14  10 04 35.467   +11 33 14.59  .32433 1.3128 178.7 21.3 2.19  34
2019 02 19 15  10 04 37.879   +11 33 41.18  .32439 1.3128 178.7 21.3 2.22  34
2019 02 19 16  10 04 40.290   +11 34 07.75  .32445 1.3129 178.6 21.3 2.25  34
2019 02 19 17  10 04 42.701   +11 34 34.31  .32451 1.3130 178.6 21.3 2.27  34
2019 02 19 18  10 04 45.111   +11 35 00.86  .32457 1.3130 178.6 21.3 2.30  34
2019 02 19 19  10 04 47.521   +11 35 27.40  .32463 1.3131 178.5 21.3 2.33  34
2019 02 19 20  10 04 49.931   +11 35 53.92  .32469 1.3132 178.5 21.3 2.36  34
2019 02 19 21  10 04 52.340   +11 36 20.43  .32475 1.3132 178.5 21.3 2.38  35
2019 02 19 22  10 04 54.748   +11 36 46.93  .32481 1.3133 178.4 21.3 2.41  35
2019 02 19 23  10 04 57.156   +11 37 13.42  .32487 1.3134 178.4 21.3 2.44  35
2019 02 20 00  10 04 59.564   +11 37 39.89  .32493 1.3134 178.4 21.3 2.47  35
2019 02 20 01  10 05 01.971   +11 38 06.36  .32499 1.3135 178.3 21.3 2.50  35
2019 02 20 02  10 05 04.378   +11 38 32.81  .32506 1.3136 178.3 21.3 2.52  35
2019 02 20 03  10 05 06.784   +11 38 59.24  .32512 1.3136 178.3 21.3 2.55  35
2019 02 20 04  10 05 09.190   +11 39 25.67  .32518 1.3137 178.2 21.3 2.58  35
2019 02 20 05  10 05 11.596   +11 39 52.08  .32524 1.3138 178.2 21.3 2.61  36
2019 02 20 06  10 05 14.001   +11 40 18.47  .32530 1.3138 178.2 21.3 2.64  36
2019 02 20 07  10 05 16.405   +11 40 44.86  .32537 1.3139 178.1 21.3 2.67  36
2019 02 20 08  10 05 18.810   +11 41 11.23  .32543 1.3140 178.1 21.3 2.70  36
2019 02 20 09  10 05 21.213   +11 41 37.58  .32549 1.3140 178.1 21.3 2.73  36
2019 02 20 10  10 05 23.617   +11 42 03.93  .32556 1.3141 178.0 21.3 2.76  36
2019 02 20 11  10 05 26.020   +11 42 30.26  .32562 1.3142 178.0 21.3 2.79  36
2019 02 20 12  10 05 28.422   +11 42 56.57  .32569 1.3142 178.0 21.4 2.82  36
2019 02 20 13  10 05 30.824   +11 43 22.87  .32575 1.3143 177.9 21.4 2.85  36
2019 02 20 14  10 05 33.226   +11 43 49.16  .32581 1.3144 177.9 21.4 2.88  36
2019 02 20 15  10 05 35.627   +11 44 15.44  .32588 1.3144 177.9 21.4 2.91  37
2019 02 20 16  10 05 38.028   +11 44 41.70  .32594 1.3145 177.8 21.4 2.94  37
2019 02 20 17  10 05 40.428   +11 45 07.94  .32601 1.3146 177.8 21.4 2.97  37
2019 02 20 18  10 05 42.828   +11 45 34.17  .32607 1.3146 177.7 21.4 3.00  37
2019 02 20 19  10 05 45.228   +11 46 00.39  .32614 1.3147 177.7 21.4 3.03  37
2019 02 20 20  10 05 47.627   +11 46 26.59  .32621 1.3148 177.7 21.4 3.06  37
2019 02 20 21  10 05 50.026   +11 46 52.78  .32627 1.3148 177.6 21.4 3.09  37
2019 02 20 22  10 05 52.424   +11 47 18.95  .32634 1.3149 177.6 21.4 3.12  37
2019 02 20 23  10 05 54.822   +11 47 45.11  .32641 1.3150 177.6 21.4 3.15  37
2019 02 21 00  10 05 57.220   +11 48 11.25  .32647 1.3150 177.5 21.4 3.18  37